This is the latest recevied weather packets stored in our database for station/object N1TKS. If no packets are shown the sender has not sent any weather packets the latest 10 day(s).
| Time | Temp. | Humidity | Pressure | Rain* | Wind** | Luminosity | Snow |
|---|---|---|---|---|---|---|---|
| 1777187659 | 5.56° C | 90% | 1018 hPa | 0.51 mm | - | - | - |
| 1777187364 | 5.56° C | 90% | 1018 hPa | 0.51 mm | - | - | - |
| 1777187059 | 5.56° C | 90% | 1018.1 hPa | 0.51 mm | - | - | - |
| 1777186773 | 5.56° C | 90% | 1018.1 hPa | 0.51 mm | - | - | - |
| 1777186760 | 5.56° C | 90% | 1018.1 hPa | 0.51 mm | - | - | - |
| 1777186460 | 5.56° C | 90% | 1018.1 hPa | 0.51 mm | - | - | - |
| 1777185563 | 5.56° C | 90% | 1018.2 hPa | 0.51 mm | - | - | - |
| 1777185260 | 5.56° C | 90% | 1018.2 hPa | 0.51 mm | - | - | - |
| 1777184059 | 5.56° C | 90% | 1018.4 hPa | 0.51 mm | - | - | - |
| 1777183563 | 5.56° C | 90% | 1018.3 hPa | 0.76 mm | - | - | - |
| 1777183159 | 5.56° C | 90% | 1018.3 hPa | 0.76 mm | - | - | - |
| 1777182860 | 5.56° C | 90% | 1018.4 hPa | 0.76 mm | - | - | - |
| 1777182259 | 5.56° C | 90% | 1018.4 hPa | 1.02 mm | - | - | - |
| 1777181959 | 5.56° C | 90% | 1018.4 hPa | 0.76 mm | - | - | - |
| 1777181711 | 5.56° C | 90% | 1018.4 hPa | 0.76 mm | - | - | - |
| 1777181660 | 5.56° C | 90% | 1018.4 hPa | 0.76 mm | - | - | - |
| 1777181059 | 5.56° C | 90% | 1018.5 hPa | 0.51 mm | - | - | - |
| 1777180759 | 5.56° C | 90% | 1018.7 hPa | 0.51 mm | - | - | - |
| 1777180460 | 5.56° C | 90% | 1018.7 hPa | 0.76 mm | - | - | - |
| 1777180158 | 5.56° C | 90% | 1018.6 hPa | 0.76 mm | - | - | - |
| 1777179859 | 5.56° C | 90% | 1018.6 hPa | 1.02 mm | - | - | - |
| 1777179560 | 5.56° C | 90% | 1018.7 hPa | 0 mm | - | - | - |
| 1777179259 | 5.56° C | 90% | 1018.8 hPa | 0 mm | - | - | - |
| 1777178960 | 5.56° C | 90% | 1018.9 hPa | 0 mm | - | - | - |
| 1777178660 | 5.56° C | 90% | 1019 hPa | 0 mm | - | - | - |
* Rain latest hour (hover to see other rain measurements)
** Current wind speed in m/s (hover to see current wind gust speed)